Waarnemingen

Advertentie
Mijn weer
Storlien-Visjovalen A, Zweden (2207): temperatuur & dauwpunt: 19.10.2020 09:00:00 - 25.10.2020 09:00:00 (CET)Storlien-Visjovalen A, Zweden (2207): windsnelheid & windstoten: 19.10.2020 09:00:00 - 25.10.2020 09:00:00 (CET)Storlien-Visjovalen A, Zweden (2207): windrichting: 19.10.2020 09:00:00 - 25.10.2020 09:00:00 (CET)Storlien-Visjovalen A, Zweden (2207): luchtdruk: 19.10.2020 09:00:00 - 25.10.2020 09:00:00 (CET)Storlien-Visjovalen A, Zweden (2207): zicht: 19.10.2020 09:00:00 - 25.10.2020 09:00:00 (CET)Storlien-Visjovalen A, Zweden (2207): neerslag: 19.10.2020 09:00:00 - 25.10.2020 09:00:00 (CET)
Datum & Tijd tt [°C] td [°C] ff [km/u] ff [kn] fx [km/u] fx [kn] dd ppp [hPa] vv [km] rr [mm]
25.10.2020 09:00:00 - - - - - - - - - -
25.10.2020 08:00:00 5,7 1,4 21 12 50 27 ZZO 991,0 50 0,0
25.10.2020 07:00:00 4,1 1,6 12 7 43 23 OZO 991,8 50 1,0
25.10.2020 06:00:00 3,5 0,7 24 13 48 26 ZO 993,2 50 0,2
25.10.2020 05:00:00 4,6 0,2 16 9 29 15 ZZO 994,3 50 0,1
25.10.2020 04:00:00 4,1 -0,1 10 5 26 14 ZO 995,6 45 0,0
25.10.2020 03:00:00 3,6 -0,8 10 5 29 16 ZO 996,3 50 0,0
25.10.2020 02:00:00 -4,5 -5,7 5 3 9 5 NW 998,7 50 0,0
25.10.2020 01:00:00 - - - - - - - - - -
25.10.2020 00:00:00 -6,5 -7,9 3 1 5 3 NW 1001,3 50 0,0
24.10.2020 23:00:00 -7,6 -9,1 2 1 5 3 ZW 1001,7 50 0,0
24.10.2020 22:00:00 -6,7 -7,8 4 2 6 4 ZO 1001,9 50 0,0
24.10.2020 21:00:00 -8,1 -9,6 0 0 5 3 N 1002,0 50 0,0
24.10.2020 20:00:00 -8,5 -10,1 0 0 7 4 N 1002,4 50 0,0
24.10.2020 19:00:00 -8,1 -9,4 3 2 5 3 ZW 1002,9 50 0,0
24.10.2020 18:00:00 -8,0 -9,5 3 1 4 2 WNW 1003,3 50 0,0
24.10.2020 17:00:00 -7,5 -9,3 0 0 5 3 N 1003,5 50 0,0
24.10.2020 16:00:00 -5,8 -7,9 2 1 5 3 ZW 1002,1 50 0,0
24.10.2020 15:00:00 -4,2 -7,5 2 1 5 3 ZZW 1002,1 50 0,0
24.10.2020 14:00:00 -2,3 -6,8 3 2 7 4 ZZO 1001,6 50 0,0
24.10.2020 13:00:00 -2,5 -7,3 3 1 6 3 O 1001,9 50 0,0
24.10.2020 12:00:00 -2,7 -7,0 2 1 6 4 O 1002,1 49 0,0
24.10.2020 11:00:00 -4,3 -8,2 4 2 6 4 O 1001,9 50 0,0
24.10.2020 10:00:00 -7,9 -10,3 2 1 5 3 O 1002,7 48 0,0
24.10.2020 09:00:00 -10,1 -11,8 4 2 6 4 ZZW 1002,6 50 0,0
24.10.2020 08:00:00 -11,8 -13,7 0 0 4 2 N 1002,9 50 0,0
24.10.2020 07:00:00 -12,2 -14,2 0 0 5 3 N 1003,0 50 0,0
24.10.2020 06:00:00 -11,6 -13,5 0 0 6 3 N 1003,3 50 0,0
24.10.2020 05:00:00 -11,8 -13,5 3 2 5 3 W 1003,3 50 0,0
24.10.2020 04:00:00 -10,5 -12,1 4 2 6 3 W 1003,3 50 0,0
24.10.2020 03:00:00 -9,2 -10,8 3 2 6 3 Z 1003,6 50 0,0
24.10.2020 02:00:00 -9,6 -11,4 0 0 5 3 N 1004,1 50 0,0
24.10.2020 01:00:00 -9,6 -11,1 0 0 7 4 N 1004,6 50 0,0
24.10.2020 00:00:00 -10,4 -12,1 0 0 8 5 N 1005,2 50 0,0
23.10.2020 23:00:00 -9,2 -10,5 3 2 10 5 O 1005,5 50 0,0
23.10.2020 22:00:00 -7,5 -9,3 6 3 12 6 O 1005,2 50 0,0
23.10.2020 21:00:00 -5,6 -8,0 5 3 18 10 OZO 1005,0 50 0,0
23.10.2020 20:00:00 -4,4 -6,7 5 3 18 10 ZW 1005,0 50 0,0
23.10.2020 19:00:00 -4,1 -6,9 9 5 24 13 ZW 1004,8 50 0,0
23.10.2020 18:00:00 -3,8 -6,3 4 2 11 6 WNW 1004,9 50 0,0
23.10.2020 17:00:00 -3,6 -6,1 3 2 10 5 Z 1005,1 50 0,0
23.10.2020 16:00:00 -2,6 -5,7 7 4 15 8 WZW 1004,7 50 0,0
23.10.2020 15:00:00 -0,9 -4,3 8 4 15 8 ZW 1004,5 50 0,0
23.10.2020 14:00:00 -0,5 -3,7 6 4 13 7 ZW 1004,2 50 0,0
23.10.2020 13:00:00 0,5 -4,0 4 2 11 6 W 1004,1 50 0,0
23.10.2020 12:00:00 - - - - - - - - - -
23.10.2020 11:00:00 -0,4 -3,4 0 0 8 4 N 1003,7 50 0,0
23.10.2020 10:00:00 -1,5 -2,9 2 1 7 4 WZW 1003,5 50 0,0
23.10.2020 09:00:00 -2,5 -4,1 3 2 13 7 NW 1003,4 50 0,0
23.10.2020 08:00:00 -3,2 -4,6 4 2 11 6 WZW 1003,2 50 0,0
23.10.2020 07:00:00 -4,2 -5,4 2 1 9 5 NO 1003,0 50 0,0
23.10.2020 06:00:00 -4,7 -5,8 4 2 7 4 WZW 1002,8 50 0,0
23.10.2020 05:00:00 -4,0 -5,1 3 1 7 4 W 1002,6 50 0,0
23.10.2020 04:00:00 -3,9 -4,7 3 2 10 5 WZW 1002,5 50 0,0
23.10.2020 03:00:00 -5,2 -6,3 2 1 6 3 OZO 1002,5 50 0,0
23.10.2020 02:00:00 -6,6 -7,5 2 1 4 2 WZW 1002,6 50 0,0
23.10.2020 01:00:00 -8,2 -9,5 0 0 6 3 N 1002,6 50 0,0
23.10.2020 00:00:00 -9,6 -11,4 4 2 5 3 W 1002,9 45 0,0
22.10.2020 23:00:00 -9,6 -11,4 4 2 7 4 W 1002,4 50 0,0
22.10.2020 22:00:00 -8,5 -10,3 3 1 4 2 W 1002,0 50 0,0
22.10.2020 21:00:00 -6,9 -8,3 3 1 6 3 W 1001,7 50 0,0
22.10.2020 20:00:00 -5,5 -7,0 3 1 8 5 O 1001,4 50 0,0
22.10.2020 19:00:00 -3,4 -4,5 4 2 11 6 WNW 1000,9 50 0,0
22.10.2020 18:00:00 -1,3 -2,0 5 3 15 8 NW 1000,3 50 0,0
22.10.2020 17:00:00 -0,7 -1,3 9 5 - - NW 1000,0 39 0,0
22.10.2020 16:00:00 -0,3 -0,7 5 3 19 11 NNW 999,5 0,9 0,0
22.10.2020 15:00:00 -0,2 -0,6 9 5 18 10 NNW 999,3 3,2 0,0
22.10.2020 14:00:00 -0,1 -0,4 9 5 14 8 NW 999,1 2,9 0,0
22.10.2020 13:00:00 0,1 -0,5 5 3 10 5 NNW 998,9 3,2 0,0
22.10.2020 12:00:00 0,1 -0,6 4 2 6 3 N 998,7 5 0,0
22.10.2020 11:00:00 -0,2 -0,8 3 2 5 3 NNW 998,7 6 0,0
22.10.2020 10:00:00 -0,1 -0,5 0 0 8 5 N 998,6 3,0 0,0
22.10.2020 09:00:00 -0,2 -0,5 2 1 8 4 ONO 998,2 2,5 0,0
22.10.2020 08:00:00 -0,3 -0,6 3 1 9 5 NNO 998,0 2,1 0,0
22.10.2020 07:00:00 -0,2 -0,5 2 1 5 3 NO 997,7 50 0,0
22.10.2020 06:00:00 -0,1 -0,4 3 2 6 3 O 997,6 40 0,0
22.10.2020 05:00:00 0,0 -0,3 4 2 7 4 ZO 997,7 1,8 0,0
22.10.2020 04:00:00 0,0 -0,3 2 1 5 3 NO 997,9 40 0,0
22.10.2020 03:00:00 0,0 -0,3 0 0 3 2 N 998,2 10 0,0
22.10.2020 02:00:00 0,0 -0,3 0 0 5 3 N 998,3 0,8 0,0
22.10.2020 01:00:00 0,0 -0,3 4 2 5 3 ZO 998,6 0,5 0,0
22.10.2020 00:00:00 0,1 -0,2 0 0 5 3 N 999,2 0,7 0,0
21.10.2020 23:00:00 0,2 -0,1 3 2 6 3 ZZO 999,4 1,4 0,0
21.10.2020 22:00:00 0,1 -0,2 3 2 5 3 Z 999,8 1,8 0,0
21.10.2020 21:00:00 0,0 -0,3 3 1 4 2 WNW 1000,3 4,6 0,0
21.10.2020 20:00:00 0,1 -0,2 0 0 3 2 N 1000,3 1,9 0,0
21.10.2020 19:00:00 0,0 -0,4 2 1 4 2 WNW 1000,3 3,0 0,0
21.10.2020 18:00:00 0,0 -0,4 0 0 5 3 N 1000,4 6 0,0
21.10.2020 17:00:00 0,1 -0,3 0 0 6 4 N 1000,5 3,1 0,0
21.10.2020 16:00:00 0,4 -0,5 0 0 3 2 N 1000,7 14 0,0
21.10.2020 15:00:00 0,7 -0,8 0 0 4 2 N 1000,5 17 0,0
21.10.2020 14:00:00 0,8 -0,7 0 0 3 2 N 1000,6 50 0,0
21.10.2020 13:00:00 0,8 -0,8 0 0 6 3 N 1000,2 16 0,3
21.10.2020 12:00:00 0,3 -1,3 0 0 5 3 N 1000,6 9 0,1
21.10.2020 11:00:00 0,0 -1,6 4 2 7 4 OZO 1000,3 50 0,0
21.10.2020 10:00:00 0,0 -1,1 3 2 6 3 ZO 1000,2 50 0,0
21.10.2020 09:00:00 -0,7 -1,7 0 0 4 2 N 1000,1 50 0,0
21.10.2020 08:00:00 -1,6 -2,3 0 0 3 2 N 1000,2 19 0,0
21.10.2020 07:00:00 -1,9 -2,6 0 0 5 3 N 1000,0 29 0,0
21.10.2020 06:00:00 -1,9 -2,6 0 0 8 4 N 1000,1 4,4 0,1
21.10.2020 05:00:00 -1,7 -2,4 3 2 5 3 Z 1000,3 3,2 0,2
21.10.2020 04:00:00 -1,7 -2,5 2 1 5 3 Z 1000,7 3,2 0,1
21.10.2020 03:00:00 -1,7 -2,5 3 2 12 7 ZZO 1001,0 3,8 0,3
21.10.2020 02:00:00 -1,7 -2,7 6 3 11 6 OZO 1001,7 4,7 0,2
21.10.2020 01:00:00 -1,7 -3,3 5 3 16 8 ZO 1002,3 4,7 0,0
21.10.2020 00:00:00 -1,8 -3,4 6 3 21 12 O 1002,9 20 0,1
20.10.2020 23:00:00 -1,8 -3,4 7 4 26 14 O 1003,5 2,9 0,7
20.10.2020 22:00:00 -1,8 -3,5 13 7 26 14 OZO 1004,3 1,5 2,1
20.10.2020 21:00:00 -1,9 -3,9 11 6 31 17 OZO 1005,1 3,1 0,2
20.10.2020 20:00:00 -1,4 -5,1 21 12 39 21 OZO 1005,7 50 0,0
20.10.2020 19:00:00 -1,4 -5,1 14 8 27 15 OZO 1006,5 50 0,0
20.10.2020 18:00:00 -1,5 -4,7 14 8 43 23 OZO 1007,3 11 0,8
20.10.2020 17:00:00 -1,3 -4,8 11 6 32 18 ZO 1008,3 10 0,3
20.10.2020 16:00:00 -1,2 -5,1 15 8 33 18 OZO 1009,3 21 0,0
20.10.2020 15:00:00 -1,3 -5,0 17 9 48 26 OZO 1010,3 12 0,0
20.10.2020 14:00:00 -1,4 -5,1 24 13 44 24 OZO 1011,2 10 0,0
20.10.2020 13:00:00 -1,8 -5,3 17 9 29 16 OZO 1012,1 49 0,0
20.10.2020 12:00:00 -1,9 -5,6 13 7 36 20 OZO 1013,1 50 0,0
20.10.2020 11:00:00 -2,8 -5,1 18 10 30 16 OZO 1013,9 50 0,0
20.10.2020 10:00:00 -5,6 -6,6 3 2 8 5 WNW 1015,0 50 0,0
20.10.2020 09:00:00 -7,8 -9,0 4 2 9 5 WZW 1015,6 50 0,0
20.10.2020 08:00:00 -10,9 -12,9 3 2 7 4 W 1016,6 50 0,0
20.10.2020 07:00:00 -12,4 -14,1 6 3 8 4 W 1017,1 50 0,0
20.10.2020 06:00:00 -13,3 -15,4 3 1 5 3 N 1017,7 50 0,0
20.10.2020 05:00:00 -12,1 -13,7 2 1 7 4 W 1018,1 50 0,0
20.10.2020 04:00:00 -12,0 -13,9 3 2 5 3 NNW 1018,4 50 0,0
20.10.2020 03:00:00 -11,5 -13,2 0 0 10 5 N 1018,7 50 0,0
20.10.2020 02:00:00 -9,3 -10,1 2 1 9 5 OZO 1018,5 50 0,0
20.10.2020 01:00:00 -9,8 -11,1 2 1 7 4 W 1018,9 50 0,0
20.10.2020 00:00:00 -7,9 -8,8 2 1 4 2 OZO 1018,3 50 0,0
19.10.2020 23:00:00 -6,6 -7,4 0 0 4 2 N 1018,0 50 0,0
19.10.2020 22:00:00 -5,8 -6,7 0 0 3 2 N 1018,1 50 0,0
19.10.2020 21:00:00 -4,8 -5,8 2 1 6 4 N 1018,0 50 0,0
19.10.2020 20:00:00 -4,3 -5,3 3 1 9 5 WZW 1017,8 50 0,0
19.10.2020 19:00:00 -3,9 -5,0 5 3 8 5 ZW 1017,4 50 0,0
19.10.2020 18:00:00 -4,3 -5,7 3 2 7 4 ZZW 1017,1 50 0,0
19.10.2020 17:00:00 -2,4 -3,8 5 3 8 4 W 1016,3 50 0,0
19.10.2020 16:00:00 -1,3 -3,0 5 3 9 5 WNW 1016,0 50 0,0
19.10.2020 15:00:00 -1,0 -2,9 6 3 21 11 NW 1015,7 50 0,0
19.10.2020 14:00:00 0,6 -1,3 8 4 16 9 WNW 1015,2 50 0,0
19.10.2020 13:00:00 0,0 -1,3 6 4 23 12 NW 1014,7 50 0,0
19.10.2020 12:00:00 0,4 -0,9 10 6 24 13 WNW 1014,3 47 0,0
19.10.2020 11:00:00 -0,1 -1,1 10 5 23 13 NW 1013,9 46 0,0
19.10.2020 10:00:00 -0,9 -1,6 8 5 23 13 NW 1013,7 50 0,0
19.10.2020 09:00:00 -1,4 -2,1 10 5 21 11 WNW 1013,1 50 0,0

tt = temperatuur
td = dauwpunt
ff = windsnelheid
fx = windstoten
dd = windrichting
ppp = luchtdruk
vv = zicht
rr = neerslag

Weerstations in de omgeving